Tracking 29932 objects as of 3-Dec-2024
HD Live streaming from Space Station
objects crossing your sky now

PSLV DEB

Track PSLV DEB now!
10-day predictions


NORAD ID: 35339
Int'l Code: 2001-049PX
Perigee: 624.6 km
Apogee: 848.0 km
Inclination: 98.3 °
Period: 99.4 minutes
Semi major axis: 7107 km
RCS: 0.0072 m2 (small)
Launch date: October 22, 2001
Source: India (IND)
Launch site: SRIHARIKOTA (SRI)

Note: This is SATELLITE DEBRIS
Your satellite tracking list
Your tracking list is empty




NASA's NSSDC Master Catalog

Two Line Element Set (TLE):
1 35339U 01049PX  24338.05940859  .00006186  00000-0  14066-2 0  9997
2 35339  98.3335  99.2267 0157129  59.3805 302.2778 14.48920067158190
Source of the keplerian elements: AFSPC